Home   Weather   Arnhem   Past weeks

Flag for Netherlands Past Weather in Arnhem, Netherlands — Yesterday and Last 2 Weeks

Now
25 °F

Ice fog.


Feels Like: 25 °F
Forecast: 30 / 38 °F
Wind: 1 mph from East

Location: Deelen

Current Time: Dec 3, 2016 at 11:03:19 pm

Latest Report: Dec 3, 2016 at 10:25 pm


Visibility: 4 mi

Pressure: 30.33 "Hg

Humidity: 100%

Dew Point: 25 °F

Location of ArnhemLocation

Past Weather in Arnhem — Graph

°F

Arnhem Temperature Yesterday

Maximum temperature yesterday: 48 °F (at 11:55 am)
Minimum temperature yesterday: 28 °F (at 11:55 pm)
Average temperature yesterday: 42 °F

High & Low Weather Summary for the Past Weeks

 TemperatureHumidityPressure
High57 °F (Nov 21, 2:25 pm)100% (Nov 20, 11:25 pm)30.57 "Hg (Nov 20, 11:25 pm)
Low18 °F (Nov 30, 2:25 am)56% (Nov 29, 2:55 pm)29.15 "Hg (Nov 20, 11:25 am)
Average40 °F87%30.07 "Hg
* Reported Nov 18 9:25 pm — Dec 3 9:55 pm, Arnhem, Weather by CustomWeather, © 2016

Note: Actual official high and low records may vary slightly from our data, if they occured in-between our weather recording intervals... More about our weather records

Advertising

Arnhem Weather History for the Previous 24 Hours

Scroll right to see more
 ConditionsComfort  
Time TempWeatherWind HumidityBarometerVisibility
9:55 pm
Sat, Dec 3
27 °FIce fog.1 mph100%30.33 "Hg4 mi
9:25 pm27 °FIce fog.1 mph93%30.33 "Hg4 mi
8:55 pm27 °FPassing clouds.2 mph100%30.33 "HgN/A
8:25 pm27 °FIce fog.1 mph100%30.33 "Hg4 mi
7:55 pm27 °FPassing clouds.1 mph100%30.33 "HgN/A
7:25 pm28 °FPassing clouds.1 mph93%30.30 "HgN/A
6:55 pm28 °FIce fog.2 mph93%30.30 "Hg2 mi
6:25 pm28 °FIce fog.2 mph93%30.30 "Hg4 mi
5:55 pm30 °FChilly.2 mph100%30.30 "HgN/A
5:25 pm32 °FChilly.2 mph93%30.30 "HgN/A
4:55 pm34 °FPassing clouds.1 mph93%30.30 "HgN/A
4:25 pm37 °FChilly.1 mph87%30.30 "HgN/A
3:55 pm41 °FPassing clouds.1 mph87%30.30 "HgN/A
3:25 pm45 °FQuite cool.No wind81%30.30 "HgN/A
2:55 pm43 °FQuite cool.No wind87%30.30 "HgN/A
2:25 pm43 °FScattered clouds.2 mph87%30.30 "HgN/A
1:55 pm43 °FOvercast.1 mph87%30.30 "HgN/A
1:25 pm43 °FOvercast.2 mph81%30.30 "HgN/A
12:55 pm43 °FOvercast.2 mph81%30.30 "HgN/A
12:25 pm39 °FOvercast.3 mph93%30.30 "HgN/A
11:55 am39 °FOvercast.2 mph93%30.30 "HgN/A
11:25 am37 °FOvercast.1 mph93%30.30 "HgN/A
10:55 am34 °FOvercast.2 mph100%30.30 "HgN/A
10:25 am32 °FOvercast.1 mph100%30.30 "HgN/A
9:55 am32 °FPartly sunny.2 mph93%30.30 "HgN/A
8:55 am27 °FOvercast.1 mph100%30.30 "HgN/A
8:25 am27 °FPassing clouds.1 mph100%30.30 "HgN/A
7:55 am27 °FIce fog.1 mph100%30.27 "Hg3 mi
7:25 am28 °FPassing clouds.1 mph93%30.27 "HgN/A
6:55 am28 °FPassing clouds.1 mph100%30.27 "HgN/A
6:25 am28 °FMostly cloudy.No wind100%30.27 "HgN/A
5:55 am28 °FOvercast.No wind93%30.27 "HgN/A
5:25 am30 °FOvercast.1 mph93%30.27 "HgN/A
4:55 am28 °FOvercast.1 mph100%30.27 "HgN/A
4:25 am28 °FOvercast.1 mph93%30.27 "HgN/A
3:55 am27 °FOvercast.No wind100%30.27 "HgN/A
3:25 am27 °FIce fog.No wind93%30.27 "Hg1 mi
2:55 am27 °FIce fog.No wind93%30.27 "Hg1 mi
2:25 am27 °FIce fog.1 mph93%30.27 "Hg1 mi
1:55 am27 °FIce fog.1 mph100%30.27 "Hg3 mi
1:25 am28 °FIce fog.No wind93%30.27 "Hg1 mi
12:55 am27 °FIce fog.1 mph100%30.27 "Hg1 mi
12:25 am28 °FIce fog.No wind93%30.27 "Hg1 mi
11:55 pm
Fri, Dec 2
28 °FIce fog.1 mph100%30.27 "Hg3 mi
11:25 pm30 °FIce fog.1 mph93%30.27 "Hg1 mi
Weather by CustomWeather, © 2016

See weather overviewHow to use our weather pages